EW6171 Weather Reports


time (UTC)temp
C
wind
direction
speed
KPH
gust
KPH
rain 1hr
cm
rain 24hr
cm
rain mn
cm
humidity
%
barometer
mb
20220930165525 26 34 8.0 14.5 0.00 0.00 0.00 53 1014.8
20220930164744 25 94 8.0 14.5 0.00 0.00 0.00 55 1014.9
20220930164235 25 91 8.0 14.5 0.00 0.00 0.00 55 1015.0
20220930163724 25 92 8.0 14.5 0.00 0.00 0.00 55 1015.0
20220930163214 25 102 8.0 14.5 0.00 0.00 0.00 56 1015.0
20220930162705 25 86 8.0 16.1 0.00 0.00 0.00 56 1015.0
20220930161913 25 34 8.0 14.5 0.00 0.00 0.00 56 1015.2
20220930161133 25 44 8.0 14.5 0.00 0.00 0.00 57 1015.2
20220930160632 24 75 9.7 14.5 0.00 0.00 0.00 56 1015.2
20220930160122 24 54 8.0 14.5 0.00 0.00 0.00 56 1015.2
20220930155333 24 96 8.0 16.1 0.00 0.00 0.00 57 1015.2
20220930154544 23 109 8.0 16.1 0.00 0.00 0.00 59 1015.3
20220930154034 23 91 8.0 14.5 0.00 0.00 0.00 59 1015.4
20220930153756 23 105 8.0 14.5 0.00 0.00 0.00 61 1015.3
20220930153245 23 46 8.0 14.5 0.00 0.00 0.00 59 1015.4
20220930151954 23 69 6.4 14.5 0.00 0.00 0.00 62 1015.3
20220930151715 22 86 6.4 16.1 0.00 0.00 0.00 63 1015.3
20220930151207 22 92 6.4 16.1 0.00 0.00 0.00 63 1015.3
20220930150426 22 62 6.4 16.1 0.00 0.00 0.00 64 1015.3
20220930145409 21 71 6.4 14.5 0.00 0.00 0.00 65 1015.3
20220930144902 21 65 6.4 14.5 0.00 0.00 0.00 66 1015.4
20220930144356 21 45 6.4 14.5 0.00 0.00 0.00 67 1015.3
20220930143848 21 59 6.4 14.5 0.00 0.00 0.00 67 1015.3
20220930143344 20 65 6.4 16.1 0.00 0.00 0.00 69 1015.3
20220930142333 20 69 6.4 12.9 0.00 0.00 0.00 70 1015.3
20220930142059 19 61 4.8 12.9 0.00 0.00 0.00 72 1015.2
20220930141318 19 71 4.8 11.3 0.00 0.00 0.00 73 1015.2
20220930140812 18 49 4.8 16.1 0.00 0.00 0.00 73 1015.2
20220930140308 18 52 4.8 16.1 0.00 0.00 0.00 74 1015.2
20220930135755 18 64 3.2 9.7 0.00 0.00 0.00 76 1015.3
20220930135527 18 65 3.2 8.0 0.00 0.00 0.00 77 1015.3
20220930134748 17 61 3.2 8.0 0.00 0.00 0.00 77 1015.3
20220930133503 16 53 1.6 8.0 0.00 0.00 0.00 80 1015.3
20220930132724 16 73 1.6 6.4 0.00 0.00 0.00 81 1015.3
20220930132213 16 51 1.6 6.4 0.00 0.00 0.00 82 1015.3
20220930131709 16 34 1.6 4.8 0.00 0.00 0.00 82 1015.3
20220930131432 15 40 0.0 3.2 0.00 0.00 0.00 83 1015.3
20220930130926 15 52 0.0 3.2 0.00 0.00 0.00 83 1015.3
20220930130423 15 43 0.0 3.2 0.00 0.00 0.00 83 1015.3
20220930125644 15 50 0.0 3.2 0.00 0.00 0.00 83 1015.3
20220930125137 15 56 1.6 4.8 0.00 0.00 0.00 83 1015.3
20220930124622 15 36 0.0 4.8 0.00 0.00 0.00 83 1015.3
20220930124347 14 44 0.0 6.4 0.00 0.00 0.00 83 1015.3
20220930123607 14 56 0.0 6.4 0.00 0.00 0.00 83 1015.2
20220930123101 14 46 1.6 6.4 0.00 0.00 0.00 83 1015.2
20220930122552 15 49 1.6 6.4 0.00 0.00 0.00 83 1015.2
20220930122045 15 48 1.6 8.0 0.00 0.00 0.00 83 1015.1
20220930121027 15 47 1.6 4.8 0.00 0.00 0.00 83 1015.1
20220930120747 15 52 1.6 4.8 0.00 0.00 0.00 83 1015.1
20220930115958 15 42 1.6 6.4 0.00 0.00 0.00 83 1015.0
20220930115720 15 61 1.6 6.4 0.00 0.00 0.00 83 1015.0
20220930114938 15 56 1.6 6.4 0.00 0.00 0.00 83 1015.0
20220930114430 15 50 1.6 6.4 0.00 0.00 0.00 83 1015.0
20220930113917 15 59 1.6 4.8 0.00 0.00 0.00 83 1015.0
20220930113407 15 56 1.6 4.8 0.00 0.00 0.00 83 1014.9
20220930112857 15 45 1.6 6.4 0.00 0.00 0.00 84 1014.9
20220930112347 15 52 1.6 6.4 0.00 0.00 0.00 84 1014.9
20220930111837 15 56 1.6 6.4 0.00 0.00 0.00 84 1015.0
20220930111327 15 54 1.6 6.4 0.00 0.00 0.00 84 1015.0
20220930110817 15 81 1.6 6.4 0.00 0.00 0.00 84 1014.9
20220930110316 15 54 1.6 4.8 0.00 0.00 0.00 84 1014.8
20220930105813 15 56 1.6 6.4 0.00 0.00 0.00 84 1014.8
20220930105301 15 49 1.6 4.8 0.00 0.00 0.00 84 1014.9
20220930105022 15 56 1.6 6.4 0.00 0.00 0.00 84 1014.8
20220930104513 15 42 1.6 6.4 0.00 0.00 0.00 84 1014.8
20220930104003 15 48 1.6 6.4 0.00 0.00 0.00 84 1014.8
20220930103222 15 61 1.6 6.4 0.00 0.00 0.00 84 1014.9
20220930102712 15 47 1.6 6.4 0.00 0.00 0.00 84 1014.9
20220930102201 15 43 1.6 6.4 0.00 0.00 0.00 83 1015.0
20220930101651 15 45 1.6 6.4 0.00 0.00 0.00 83 1014.9
20220930101141 15 48 1.6 6.4 0.00 0.00 0.00 83 1014.9
20220930100854 15 52 1.6 6.4 0.00 0.00 0.00 84 1014.9
20220930100114 15 40 1.6 6.4 0.00 0.00 0.00 84 1014.9
20220930095325 16 44 1.6 6.4 0.00 0.00 0.00 84 1014.9
20220930094544 16 48 1.6 6.4 0.00 0.00 0.00 83 1014.9
20220930094035 16 26 1.6 6.4 0.00 0.00 0.00 83 1014.9
20220930093523 16 38 1.6 4.8 0.00 0.00 0.00 83 1014.8
20220930092504 16 46 1.6 4.8 0.00 0.00 0.00 83 1014.8
20220930091715 16 42 1.6 4.8 0.00 0.00 0.00 84 1014.8
20220930090940 16 42 1.6 6.4 0.00 0.00 0.00 84 1014.8
20220930085920 16 37 0.0 3.2 0.00 0.00 0.00 83 1014.8
20220930085640 16 58 0.0 4.8 0.00 0.00 0.00 83 1014.7
20220930084901 16 24 0.0 3.2 0.00 0.00 0.00 84 1014.8
20220930084349 16 44 0.0 3.2 0.00 0.00 0.00 84 1014.9
20220930084111 16 44 0.0 4.8 0.00 0.00 0.00 84 1014.8
20220930083329 16 36 0.0 4.8 0.00 0.00 0.00 84 1014.9
20220930082823 16 42 0.0 3.2 0.00 0.00 0.00 84 1014.9
20220930082306 17 38 0.0 3.2 0.00 0.00 0.00 84 1014.9
20220930081757 17 43 0.0 3.2 0.00 0.00 0.00 84 1014.9
20220930081245 17 38 0.0 3.2 0.00 0.00 0.00 84 1014.9
20220930080454 17 51 1.6 4.8 0.00 0.00 0.00 85 1014.9
20220930075714 17 54 0.0 4.8 0.00 0.00 0.00 84 1014.9
20220930075436 17 58 0.0 4.8 0.00 0.00 0.00 84 1014.9
20220930074142 17 50 1.6 6.4 0.00 0.00 0.00 84 1014.9
20220930073911 17 59 1.6 6.4 0.00 0.00 0.00 84 1015.0
20220930073401 17 61 1.6 4.8 0.00 0.00 0.00 84 1015.0
20220930072852 17 59 0.0 4.8 0.00 0.00 0.00 84 1014.9
20220930072109 17 62 0.0 4.8 0.00 0.00 0.00 84 1014.9
20220930071047 17 68 0.0 3.2 0.00 0.00 0.00 84 1014.9
20220930070028 17 40 0.0 4.8 0.00 0.00 0.00 84 1015.0
20220930065514 17 44 1.6 4.8 0.00 0.00 0.00 84 1014.9
20220930064957 17 36 1.6 4.8 0.00 0.00 0.00 84 1014.9
20220930064449 17 33 1.6 4.8 0.00 0.00 0.00 84 1014.9
20220930063932 17 38 0.0 4.8 0.00 0.00 0.00 84 1014.9
20220930063426 17 41 0.0 3.2 0.00 0.00 0.00 84 1014.9
20220930062359 17 30 0.0 3.2 0.00 0.00 0.00 84 1014.9
20220930062121 17 37 0.0 4.8 0.00 0.00 0.00 84 1014.9
20220930061332 17 36 0.0 4.8 0.00 0.00 0.00 84 1014.9
20220930060813 17 39 0.0 3.2 0.00 0.00 0.00 84 1014.9
20220930060303 17 37 0.0 0.0 0.00 0.00 0.00 84 1015.1
20220930055753 17 29 0.0 0.0 0.00 0.00 0.00 84 1015.1
20220930055241 18 79 0.0 0.0 0.00 0.00 0.00 84 1015.0
20220930054955 18 78 0.0 0.0 0.00 0.00 0.00 84 1015.0
20220930054214 18 76 0.0 0.0 0.00 0.00 0.00 84 1015.0
20220930053703 18 78 0.0 0.0 0.00 0.00 0.00 84 1015.0
20220930053153 18 79 0.0 0.0 0.00 0.00 0.00 84 1015.0
20220930052135 18 79 0.0 0.0 0.00 0.00 0.00 84 1015.0
20220930051624 18 79 0.0 3.2 0.00 0.00 0.00 84 1015.0
20220930051113 18 80 0.0 3.2 0.00 0.00 0.00 84 1015.1
20220930050608 18 80 0.0 3.2 0.00 0.00 0.00 84 1015.1
20220930045315 18 63 1.6 4.8 0.00 0.00 0.00 84 1015.2
20220930044541 18 61 1.6 4.8 0.00 0.00 0.00 83 1015.2
20220930044022 18 52 0.0 3.2 0.00 0.00 0.00 83 1015.3
20220930043514 19 51 0.0 3.2 0.00 0.00 0.00 83 1015.3
20220930043241 19 83 0.0 0.0 0.00 0.00 0.00 83 1015.3
20220930042735 19 84 0.0 0.0 0.00 0.00 0.00 83 1015.3
20220930042004 19 84 0.0 0.0 0.00 0.00 0.00 83 1015.3
20220930041454 19 84 0.0 0.0 0.00 0.00 0.00 83 1015.3
20220930040445 19 79 0.0 0.0 0.00 0.00 0.00 83 1015.4
20220930040211 19 81 0.0 0.0 0.00 0.00 0.00 82 1015.4
20220930035707 19 85 0.0 0.0 0.00 0.00 0.00 82 1015.3
20220930034427 19 91 0.0 0.0 0.00 0.00 0.00 82 1015.3
20220930034154 20 91 0.0 0.0 0.00 0.00 0.00 82 1015.3
20220930033422 20 91 0.0 0.0 0.00 0.00 0.00 81 1015.3
20220930032913 20 91 0.0 0.0 0.00 0.00 0.00 80 1015.4
20220930032413 20 91 0.0 0.0 0.00 0.00 0.00 80 1015.3
20220930031904 20 91 0.0 0.0 0.00 0.00 0.00 80 1015.3
20220930031121 20 211 0.0 0.0 0.00 0.00 0.00 78 1015.3
20220930030338 21 211 0.0 0.0 0.00 0.00 0.00 78 1015.3
20220930025832 21 211 0.0 0.0 0.00 0.00 0.00 77 1015.3
20220930025324 21 211 0.0 1.6 0.00 0.00 0.00 77 1015.3
20220930024312 21 211 0.0 4.8 0.00 0.00 0.00 77 1015.2
20220930023805 21 175 0.0 6.4 0.00 0.00 0.00 77 1015.2
20220930023526 21 175 1.6 6.4 0.00 0.00 0.00 77 1015.2
20220930023020 21 175 1.6 3.2 0.00 0.00 0.00 77 1015.2
20220930022238 21 175 0.0 3.2 0.00 0.00 0.00 76 1015.2
20220930021730 21 165 0.0 3.2 0.00 0.00 0.00 76 1015.2
20220930021221 21 165 0.0 3.2 0.00 0.00 0.00 77 1015.2
20220930020713 21 165 0.0 4.8 0.00 0.00 0.00 77 1015.2
20220930020204 21 171 0.0 4.8 0.00 0.00 0.00 78 1015.2
20220930015654 21 146 1.6 8.0 0.00 0.00 0.00 77 1015.2
20220930015145 21 150 1.6 8.0 0.00 0.00 0.00 77 1015.2
20220930014634 21 154 1.6 6.4 0.00 0.00 0.00 77 1015.1
20220930014356 21 144 1.6 4.8 0.00 0.00 0.00 76 1015.1
20220930013845 22 167 1.6 4.8 0.00 0.00 0.00 76 1015.0
20220930012553 22 142 1.6 6.4 0.00 0.00 0.00 76 1014.9
20220930012043 22 187 1.6 6.4 0.00 0.00 0.00 76 1015.0
20220930011533 22 141 1.6 4.8 0.00 0.00 0.00 74 1014.9
20220930011023 22 141 1.6 4.8 0.00 0.00 0.00 73 1014.8
20220930010513 22 150 1.6 4.8 0.00 0.00 0.00 73 1014.8
20220930010005 22 150 1.6 4.8 0.00 0.00 0.00 73 1014.8
20220930005453 22 127 1.6 6.4 0.00 0.00 0.00 73 1014.7
20220930004952 23 129 1.6 6.4 0.00 0.00 0.00 72 1014.7
20220930004442 23 141 1.6 6.4 0.00 0.00 0.00 71 1014.7
20220930003944 23 142 1.6 6.4 0.00 0.00 0.00 71 1014.7
20220930003211 23 163 1.6 4.8 0.00 0.00 0.00 68 1014.8
20220930002707 24 139 1.6 6.4 0.00 0.00 0.00 68 1014.8
20220930001937 24 155 1.6 8.0 0.00 0.00 0.00 67 1014.7
20220930001428 24 173 3.2 9.7 0.00 0.00 0.00 66 1014.7
20220930001148 25 173 3.2 9.7 0.00 0.00 0.00 65 1014.7
20220930000139 25 176 4.8 9.7 0.00 0.00 0.00 62 1014.7
20220929235357 26 172 4.8 11.3 0.00 0.00 0.00 62 1014.7
20220929234847 26 171 6.4 11.3 0.00 0.00 0.00 62 1014.7
20220929234609 26 167 8.0 14.5 0.00 0.00 0.00 62 1014.7
20220929233826 26 163 8.0 14.5 0.00 0.00 0.00 60 1014.6
20220929233317 27 163 8.0 14.5 0.00 0.00 0.00 60 1014.7
20220929233036 27 149 8.0 14.5 0.00 0.00 0.00 59 1014.7
20220929231744 27 167 8.0 12.9 0.00 0.00 0.00 55 1014.7
20220929231257 28 151 8.0 12.9 0.00 0.00 0.00 55 1014.7
20220929230733 28 167 8.0 12.9 0.00 0.00 0.00 55 1014.7
20220929230223 28 171 8.0 11.3 0.00 0.00 0.00 53 1014.7
20220929225714 28 188 9.7 14.5 0.00 0.00 0.00 52 1014.8
20220929225435 28 160 11.3 14.5 0.00 0.00 0.00 52 1014.9
20220929224645 28 167 9.7 16.1 0.00 0.00 0.00 52 1014.9
20220929224407 28 168 9.7 16.1 0.00 0.00 0.00 51 1014.9
20220929223626 28 185 9.7 14.5 0.00 0.00 0.00 51 1015.0
20220929223347 28 172 9.7 16.1 0.00 0.00 0.00 51 1015.0
20220929222318 29 178 9.7 16.1 0.00 0.00 0.00 51 1015.0
20220929221538 29 181 8.0 16.1 0.00 0.00 0.00 50 1015.1
20220929220518 29 150 11.3 16.1 0.00 0.00 0.00 49 1015.2
20220929220008 29 167 9.7 17.7 0.00 0.00 0.00 49 1015.2
20220929215455 30 182 8.0 17.7 0.00 0.00 0.00 49 1015.3
20220929214945 30 197 6.4 11.3 0.00 0.00 0.00 47 1015.3
20220929214435 30 213 6.4 9.7 0.00 0.00 0.00 47 1015.4
20220929213918 30 38 8.0 16.1 0.00 0.00 0.00 39 1015.4
20220929213409 30 56 8.0 16.1 0.00 0.00 0.00 40 1015.4
20220929212620 30 97 3.2 9.7 0.00 0.00 0.00 41 1015.5
20220929211837 30 44 4.8 16.1 0.00 0.00 0.00 39 1015.6
20220929211608 30 68 3.2 16.1 0.00 0.00 0.00 39 1015.6
20220929210316 30 32 6.4 17.7 0.00 0.00 0.00 39 1015.7
20220929205814 30 331 8.0 17.7 0.00 0.00 0.00 38 1015.8
20220929205306 30 10 6.4 12.9 0.00 0.00 0.00 40 1015.8
20220929204520 30 5 4.8 11.3 0.00 0.00 0.00 39 1016.0
20220929203734 30 295 4.8 12.9 0.00 0.00 0.00 40 1016.0
20220929203225 30 311 3.2 9.7 0.00 0.00 0.00 40 1016.1
20220929202944 30 281 3.2 8.0 0.00 0.00 0.00 44 1016.2
20220929202438 30 212 4.8 12.9 0.00 0.00 0.00 43 1016.3
20220929201926 30 121 4.8 16.1 0.00 0.00 0.00 43 1016.3
20220929201148 30 175 1.6 16.1 0.00 0.00 0.00 42 1016.4
20220929200637 30 237 3.2 8.0 0.00 0.00 0.00 43 1016.6
20220929195621 30 77 8.0 17.7 0.00 0.00 0.00 42 1016.9
20220929195116 30 90 6.4 14.5 0.00 0.00 0.00 42 1016.9
20220929194608 30 350 4.8 14.5 0.00 0.00 0.00 44 1017.0
20220929194102 29 356 3.2 9.7 0.00 0.00 0.00 42 1017.2
20220929193551 29 125 4.8 14.5 0.00 0.00 0.00 44 1017.2
20220929193046 29 94 8.0 16.1 0.00 0.00 0.00 43 1017.3
20220929192538 29 59 4.8 16.1 0.00 0.00 0.00 44 1017.5
20220929192033 28 63 8.0 17.7 0.00 0.00 0.00 44 1017.6
20220929191527 29 68 11.3 17.7 0.00 0.00 0.00 44 1017.7
20220929191025 29 64 8.0 17.7 0.00 0.00 0.00 44 1017.8
20220929190521 29 69 6.4 16.1 0.00 0.00 0.00 47 1017.8
20220929190023 29 74 9.7 17.7 0.00 0.00 0.00 46 1017.9
20220929185510 29 63 9.7 17.7 0.00 0.00 0.00 47 1018.0
20220929185018 28 90 11.3 17.7 0.00 0.00 0.00 46 1018.1
20220929183950 28 52 6.4 16.1 0.00 0.00 0.00 46 1018.4
20220929183442 28 66 6.4 17.7 0.00 0.00 0.00 48 1018.4
20220929182940 28 23 6.4 16.1 0.00 0.00 0.00 48 1018.5
20220929182434 28 41 6.4 17.7 0.00 0.00 0.00 48 1018.6
20220929182205 28 24 8.0 16.1 0.00 0.00 0.00 45 1018.7
20220929181428 28 354 9.7 17.7 0.00 0.00 0.00 45 1018.8
20220929181156 28 56 8.0 17.7 0.00 0.00 0.00 46 1018.9
20220929180650 28 71 8.0 17.7 0.00 0.00 0.00 46 1019.0
20220929175916 28 42 8.0 17.7 0.00 0.00 0.00 47 1019.1
20220929175405 28 56 6.4 14.5 0.00 0.00 0.00 48 1019.2
20220929175131 28 329 9.7 0.0 0.00 0.00 0.00 46 1019.3
20220929174028 28 108 9.7 16.1 0.00 0.00 0.00 50 1019.4
20220929173521 28 75 6.4 16.1 0.00 0.00 0.00 50 1019.5
20220929173013 27 60 6.4 14.5 0.00 0.00 0.00 50 1019.6
20220929172508 27 5 9.7 16.1 0.00 0.00 0.00 49 1019.6
20220929172227 27 43 9.7 16.1 0.00 0.00 0.00 51 1019.7
20220929171451 27 21 8.0 17.7 0.00 0.00 0.00 53 1019.8
20220929170942 27 46 9.7 17.7 0.00 0.00 0.00 52 1019.8
20220929170435 27 87 9.7 14.5 0.00 0.00 0.00 55 1019.8
20220929165931 27 5 8.0 19.3 0.00 0.00 0.00 53 1019.8